Feather Falls, CA

12:30 PM PDT on September 25, 2016 (GMT -0700)
Oroville Municipal

Weather History for KOVE - October, 2013

Change the Weather History Date:

Sunday, October 20, 2013

  Actual Average Record
Temperature  
Mean Temperature 65 °F -  
Max Temperature 82 °F 78 °F 94 °F (1991)
Min Temperature 48 °F 49 °F 41 °F (1953)
Growing Degree Days 15 (Base 50)    
Moisture  
Dew Point 41 °F    
Average Humidity 46    
Maximum Humidity 77    
Minimum Humidity 21    
Precipitation  
Precipitation 0.00 in - - ()
Sea Level Pressure  
Sea Level Pressure 29.96 in    
Wind  
Wind Speed 2 mph (ESE)    
Max Wind Speed 8 mph    
Max Gust Speed -    
Visibility 10 miles    
Events      
Averages and records for this station are not official NWS values.
T = Trace of Precipitation, MM = Missing Value Source: NWS Daily Summary

Daily Weather History Graph

Daily Weather History Graph

Search for Another Location

Airport or City:

Trip Planner

Search our weather history database for the weather conditions in past years. The results will help you decide how hot, cold, wet, or windy it might be!

Date:

Astronomy

Oct. 20, 2013 Rise Set
Actual Time 7:22 AM PDT 6:19 PM PDT
Civil Twilight 6:54 AM PDT 6:47 PM PDT
Nautical Twilight 6:23 AM PDT 7:18 PM PDT
Astronomical Twilight 5:52 AM PDT 7:49 PM PDT
Moon 7:32 PM PDT (10/20) 9:04 AM PDT (10/20)
Length of Visible Light 11h 52m
Length of Day
10h 57m
Waning Gibbous, 97% of the Moon is Illuminated
Oct 20
Waning Gibbous
Oct 26
Last Quarter
Nov 3
New
Nov 9
First Quarter
Nov 17
Full

Hourly Weather History & Observations

Time (PDT) Temp. Dew Point Humidity Pressure Visibility Wind Dir Wind Speed Gust Speed Precip Events Conditions
12:53 AM 57.0 °F 39.0 °F 51% 30.02 in 10.0 mi Calm Calm - N/A   Clear
1:53 AM 55.0 °F 41.0 °F 59% 30.02 in 10.0 mi Calm Calm - N/A   Clear
2:53 AM 53.1 °F 39.0 °F 59% 30.02 in 10.0 mi NNE 3.5 mph - N/A   Clear
3:53 AM 55.0 °F 39.9 °F 57% 30.01 in 10.0 mi Calm Calm - N/A   Clear
4:53 AM 51.1 °F 41.0 °F 68% 30.01 in 10.0 mi WNW 4.6 mph - N/A   Clear
5:53 AM 48.9 °F 41.0 °F 74% 30.00 in 10.0 mi Calm Calm - N/A   Clear
6:53 AM 48.9 °F 41.0 °F 74% 30.01 in 10.0 mi SSW 3.5 mph - N/A   Clear
7:53 AM 48.0 °F 41.0 °F 77% 30.02 in 10.0 mi Calm Calm - N/A   Clear
8:53 AM 54.0 °F 45.0 °F 72% 30.02 in 10.0 mi Calm Calm - N/A   Clear
9:53 AM 63.0 °F 39.9 °F 43% 30.02 in 10.0 mi Calm Calm - N/A   Clear
10:53 AM 69.1 °F 39.0 °F 33% 30.01 in 10.0 mi Calm Calm - N/A   Clear
11:53 AM 72.0 °F 43.0 °F 35% 30.00 in 10.0 mi Variable 3.5 mph - N/A   Clear
12:53 PM 73.9 °F 41.0 °F 30% 29.97 in 10.0 mi Variable 3.5 mph - N/A   Clear
1:53 PM 79.0 °F 39.9 °F 25% 29.94 in 10.0 mi WSW 4.6 mph - N/A   Clear
2:53 PM 81.0 °F 37.9 °F 21% 29.91 in 10.0 mi Calm Calm - N/A   Clear
3:53 PM 82.0 °F 39.9 °F 22% 29.90 in 10.0 mi Variable 3.5 mph - N/A   Clear
4:53 PM 81.0 °F 39.0 °F 22% 29.89 in 10.0 mi SSW 4.6 mph - N/A   Clear
5:53 PM 78.1 °F 41.0 °F 27% 29.89 in 10.0 mi Calm Calm - N/A   Clear
6:53 PM 73.0 °F 43.0 °F 34% 29.90 in 10.0 mi SSE 3.5 mph - N/A   Clear
7:53 PM 66.0 °F 43.0 °F 43% 29.90 in 10.0 mi ENE 3.5 mph - N/A   Clear
8:53 PM 66.0 °F 41.0 °F 40% 29.91 in 10.0 mi East 6.9 mph - N/A   Clear
9:53 PM 66.0 °F 42.1 °F 42% 29.92 in 10.0 mi ENE 6.9 mph - N/A   Clear
10:53 PM 66.9 °F 42.1 °F 40% 29.93 in 10.0 mi East 8.1 mph - N/A   Clear
11:53 PM 64.0 °F 43.0 °F 46% 29.93 in 10.0 mi East 6.9 mph - N/A   Clear